EBCI

Brussels South Charleroi Airport

Airport
ICAO code
EBCI
Summary
ICAO Region
EUR
ICAO Territory
Location

Charleroi,

Coordinates
50° 27' 46" N , 4° 27' 42" E
KCC
Metar
Observation
EBCI 310950Z 20019G32KT 6000 -RA FEW015 SCT021 BKN027 11/07 Q0996 TEMPO 4000 RA
Station
Charleroi / Gosselies
Date/Time
2023-03-31 09:50:00
Wind direction
200°
Wind speed
19 kts
Lowest cloud amount
few clouds
Temperature
11°C
Dew point
7°C
Humidity
76%
QNH
996 hPa
Weather condition
n/a

Description

Charleroi airport is an international airport located in Gosselies, 46 km south of Brussels.

Climatology

Temperate Marine climate/Oceanic climate (Köppen climate classification Cfb). Moderately cool summer and comparatively warm winter with a temperature range of only 14°C. Prevailing south-westerly winds from the Atlantic Ocean.

Runways

Designator Length Width Surface Rops
7/25 2550 45 ASP Yes/Yes

Airport map

Aerial View

SKYbrary Partners:

Safety knowledge contributed by: